Orbital elements: 2009 HF Earth MOID = 0.0745 AU Epoch 2009 June 18.0 TT = JDT 2455000.5 MPC M 58.89740 (2000.0) P Q n 0.49669981 Peri. 111.37830 -0.75142426 -0.64185319 a 1.5790894 Node 29.35465 +0.42799558 -0.65053829 e 0.4300886 Incl. 18.17713 +0.50217663 -0.40598574 P 1.98 H 22.7 G 0.15 U 8